RYR99SH LEPA-EDDH

Flight info

Callsign RYR99SH
Flight time 2h 30m
Altitude 36000
Route MEROS N853 LUMAS DCT MAXIR DCT LUSOL DCT BODRU DCT OKTET DCT IRMAR DCT KINES DCT VANAS DCT ESOKO DCT GODRA DCT LOKTA DCT TEDGO DCT HAREM DCT LOHRE DCT ELNAT P605 NOLGO NOLGO3P
Aircraft B738/M-SADFGIJ1LRWYZ/LB1

Departure

Time 2026-04-22 07:46
Airport Palma de Mallorca Airport (LEPA)

Arrival

Time 2026-04-22 10:16
Airport Hamburg Helmut Schmidt Airport (EDDH)
Time Latitude Longitude Altitude Speed Heading
2026-04-22 07:03 39.55086 2.73618 37 ft 0 kts 189°
2026-04-22 07:37 39.55099 2.73621 37 ft 4 kts 189°
2026-04-22 07:37 39.55125 2.73621 35 ft 4 kts 161°
2026-04-22 07:37 39.55144 2.73610 35 ft 3 kts 148°
2026-04-22 07:37 39.55161 2.73589 38 ft 4 kts 103°
2026-04-22 07:38 39.55160 2.73557 37 ft 4 kts 64°
2026-04-22 07:38 39.55149 2.73533 37 ft 4 kts 58°
2026-04-22 07:38 39.55136 2.73506 36 ft 2 kts 59°
2026-04-22 07:38 39.55136 2.73505 38 ft 0 kts 59°
2026-04-22 07:40 39.55153 2.73541 38 ft 11 kts 58°
2026-04-22 07:40 39.55203 2.73610 38 ft 9 kts 353°
2026-04-22 07:41 39.55266 2.73565 38 ft 14 kts 328°
2026-04-22 07:41 39.55359 2.73493 38 ft 16 kts 329°
2026-04-22 07:41 39.55435 2.73454 38 ft 9 kts 17°
2026-04-22 07:41 39.55480 2.73524 37 ft 12 kts 58°
2026-04-22 07:42 39.55534 2.73567 38 ft 9 kts 340°
2026-04-22 07:42 39.55598 2.73517 38 ft 15 kts 329°
2026-04-22 07:42 39.55667 2.73531 38 ft 10 kts 49°
2026-04-22 07:42 39.55702 2.73601 38 ft 8 kts 60°
2026-04-22 07:43 39.55747 2.73696 38 ft 16 kts 58°
2026-04-22 07:43 39.55809 2.73828 38 ft 18 kts 58°
2026-04-22 07:43 39.55877 2.73970 38 ft 19 kts 58°
2026-04-22 07:43 39.55946 2.74118 38 ft 18 kts 58°
2026-04-22 07:44 39.56004 2.74234 38 ft 14 kts 49°
2026-04-22 07:44 39.56089 2.74300 37 ft 15 kts 28°
2026-04-22 07:44 39.56181 2.74344 38 ft 11 kts 343°
2026-04-22 07:44 39.56233 2.74297 38 ft 8 kts 299°
2026-04-22 07:45 39.56223 2.74257 38 ft 0 kts 239°
2026-04-22 07:45 39.56216 2.74240 38 ft 11 kts 240°
2026-04-22 07:45 39.56046 2.73874 38 ft 84 kts 238°
2026-04-22 07:45 39.55625 2.72990 38 ft 143 kts 238°
2026-04-22 07:46 39.55053 2.71754 352 ft 161 kts 240°
2026-04-22 07:46 39.54482 2.70534 1028 ft 157 kts 238°
2026-04-22 07:46 39.53893 2.69329 1509 ft 167 kts 237°
2026-04-22 07:46 39.53249 2.67988 1871 ft 182 kts 238°
2026-04-22 07:47 39.52560 2.66528 2230 ft 200 kts 238°
2026-04-22 07:47 39.51801 2.64916 2604 ft 216 kts 238°
2026-04-22 07:47 39.51010 2.63240 3326 ft 219 kts 238°
2026-04-22 07:47 39.50198 2.61555 4039 ft 222 kts 233°
2026-04-22 07:48 39.49023 2.60185 4397 ft 244 kts 208°
2026-04-22 07:48 39.47438 2.59153 4804 ft 264 kts 206°
2026-04-22 07:48 39.45760 2.58092 5515 ft 271 kts 206°
2026-04-22 07:48 39.44043 2.57033 6286 ft 276 kts 202°
2026-04-22 07:49 39.42137 2.56586 6990 ft 284 kts 179°
2026-04-22 07:49 39.40207 2.57176 7713 ft 291 kts 154°
2026-04-22 07:49 39.38612 2.58818 8425 ft 298 kts 128°
2026-04-22 07:49 39.37386 2.60998 9171 ft 303 kts 125°
2026-04-22 07:50 39.36006 2.63078 9881 ft 308 kts 136°
2026-04-22 07:50 39.34444 2.65044 10357 ft 322 kts 136°
2026-04-22 07:50 39.32772 2.67122 10558 ft 345 kts 137°
2026-04-22 07:50 39.31597 2.68572 10715 ft 358 kts 136°
2026-04-22 07:51 39.29776 2.70817 11275 ft 366 kts 136°
2026-04-22 07:51 39.28005 2.73204 11924 ft 371 kts 125°
2026-04-22 07:51 39.26962 2.76233 12578 ft 372 kts 99°
2026-04-22 07:51 39.26795 2.79563 13253 ft 374 kts 89°
2026-04-22 07:52 39.26776 2.82929 13926 ft 377 kts 88°
2026-04-22 07:52 39.26824 2.86318 14517 ft 379 kts 83°
2026-04-22 07:52 39.27295 2.89661 15100 ft 380 kts 72°
2026-04-22 07:52 39.28234 2.92856 15680 ft 381 kts 61°
2026-04-22 07:53 39.29530 2.95852 16258 ft 383 kts 58°
2026-04-22 07:53 39.30865 2.98845 16835 ft 387 kts 58°
2026-04-22 07:53 39.32211 3.01873 17401 ft 391 kts 58°
2026-04-22 07:53 39.33568 3.04936 17969 ft 395 kts 58°
2026-04-22 07:54 39.34938 3.08027 18497 ft 398 kts 58°
2026-04-22 07:54 39.36321 3.11146 18982 ft 402 kts 58°
2026-04-22 07:54 39.37716 3.14299 19479 ft 405 kts 58°
2026-04-22 07:54 39.39121 3.17475 19983 ft 408 kts 58°
2026-04-22 07:55 39.40535 3.20678 20478 ft 411 kts 58°
2026-04-22 07:55 39.41958 3.23906 20974 ft 415 kts 58°
2026-04-22 07:55 39.43395 3.27160 21465 ft 418 kts 58°
2026-04-22 07:55 39.44850 3.30375 21934 ft 421 kts 57°
2026-04-22 07:56 39.46359 3.33642 22401 ft 424 kts 57°
2026-04-22 07:56 39.47888 3.36922 22861 ft 427 kts 57°
2026-04-22 07:56 39.49429 3.40224 23306 ft 430 kts 57°
2026-04-22 07:56 39.50979 3.43557 23707 ft 433 kts 57°
2026-04-22 07:57 39.52534 3.46920 24069 ft 436 kts 57°
2026-04-22 07:57 39.54092 3.50312 24418 ft 439 kts 57°
2026-04-22 07:57 39.55653 3.53731 24758 ft 442 kts 57°
2026-04-22 07:57 39.57217 3.57173 25100 ft 445 kts 57°
2026-04-22 07:58 39.58791 3.60637 25422 ft 447 kts 57°
2026-04-22 07:58 39.60378 3.64119 25745 ft 450 kts 57°
2026-04-22 07:58 39.61977 3.67628 26068 ft 452 kts 57°
2026-04-22 07:58 39.63583 3.71154 26385 ft 455 kts 57°
2026-04-22 07:59 39.65197 3.74695 26703 ft 457 kts 57°
2026-04-22 07:59 39.66817 3.78256 27008 ft 460 kts 57°
2026-04-22 07:59 39.68446 3.81846 27322 ft 462 kts 57°
2026-04-22 07:59 39.70076 3.85442 27667 ft 463 kts 57°
2026-04-22 08:00 39.71710 3.89055 27970 ft 465 kts 57°
2026-04-22 08:00 39.73350 3.92687 28260 ft 467 kts 57°
2026-04-22 08:00 39.74979 3.96294 28571 ft 469 kts 57°
2026-04-22 08:00 39.76630 3.99952 28871 ft 470 kts 57°
2026-04-22 08:01 39.78308 4.03677 29146 ft 472 kts 57°
2026-04-22 08:01 39.79947 4.07325 29396 ft 474 kts 57°
2026-04-22 08:01 39.81614 4.11038 29652 ft 476 kts 57°
2026-04-22 08:01 39.83484 4.14581 29879 ft 475 kts 47°
2026-04-22 08:02 39.85761 4.17664 30093 ft 472 kts 37°
2026-04-22 08:02 39.88385 4.20212 30291 ft 469 kts 27°
2026-04-22 08:02 39.91270 4.22152 30504 ft 464 kts 18°
2026-04-22 08:02 39.94320 4.23445 30754 ft 459 kts
2026-04-22 08:03 39.97438 4.24215 31044 ft 456 kts
2026-04-22 08:03 40.00562 4.24945 31311 ft 456 kts
2026-04-22 08:03 40.03679 4.25680 31568 ft 455 kts
2026-04-22 08:03 40.06797 4.26418 31828 ft 455 kts
2026-04-22 08:04 40.09915 4.27156 32093 ft 454 kts
2026-04-22 08:04 40.13025 4.27893 32353 ft 454 kts
2026-04-22 08:04 40.16127 4.28626 32620 ft 454 kts
2026-04-22 08:04 40.19237 4.29362 32894 ft 453 kts
2026-04-22 08:05 40.22337 4.30097 33161 ft 453 kts
2026-04-22 08:05 40.25434 4.30829 33426 ft 452 kts
2026-04-22 08:05 40.28531 4.31560 33689 ft 452 kts
2026-04-22 08:05 40.31622 4.32291 33953 ft 451 kts
2026-04-22 08:06 40.34710 4.33023 34184 ft 451 kts
2026-04-22 08:06 40.37794 4.33753 34401 ft 451 kts
2026-04-22 08:06 40.40882 4.34484 34628 ft 451 kts
2026-04-22 08:06 40.43924 4.35208 34840 ft 450 kts
2026-04-22 08:07 40.47006 4.35945 35041 ft 450 kts
2026-04-22 08:07 40.50088 4.36683 35236 ft 450 kts
2026-04-22 08:07 40.53172 4.37419 35426 ft 450 kts
2026-04-22 08:07 40.56261 4.38156 35607 ft 450 kts
2026-04-22 08:08 40.59339 4.38890 35790 ft 450 kts
2026-04-22 08:08 40.62420 4.39626 35949 ft 450 kts
2026-04-22 08:08 40.68574 4.41099 35985 ft 449 kts
2026-04-22 08:09 40.74727 4.42581 35989 ft 449 kts
2026-04-22 08:09 40.80874 4.44060 35989 ft 449 kts
2026-04-22 08:10 40.87021 4.45534 35989 ft 449 kts
2026-04-22 08:10 40.93123 4.46998 35991 ft 449 kts
2026-04-22 08:11 40.99264 4.48490 35994 ft 449 kts
2026-04-22 08:11 41.05410 4.49998 36007 ft 449 kts
2026-04-22 08:12 41.11550 4.51497 36006 ft 449 kts
2026-04-22 08:12 41.17691 4.52983 35996 ft 448 kts
2026-04-22 08:13 41.23831 4.54475 36004 ft 448 kts
2026-04-22 08:13 41.29966 4.55969 36012 ft 448 kts
2026-04-22 08:14 41.36105 4.57478 36011 ft 448 kts
2026-04-22 08:14 41.42235 4.58989 36011 ft 448 kts
2026-04-22 08:15 41.48319 4.60481 36020 ft 447 kts
2026-04-22 08:15 41.54438 4.61992 36019 ft 447 kts
2026-04-22 08:16 41.60543 4.63508 36017 ft 446 kts
2026-04-22 08:16 41.66649 4.65016 36014 ft 446 kts
2026-04-22 08:17 41.72716 4.66829 36021 ft 451 kts 15°
2026-04-22 08:17 41.78341 4.70680 36016 ft 457 kts 27°
2026-04-22 08:18 41.83792 4.75070 36014 ft 457 kts 27°
2026-04-22 08:18 41.89249 4.79465 36025 ft 457 kts 27°
2026-04-22 08:19 41.94704 4.83862 36019 ft 457 kts 27°
2026-04-22 08:19 42.00166 4.88265 36020 ft 457 kts 27°
2026-04-22 08:20 42.05617 4.92682 36027 ft 457 kts 27°
2026-04-22 08:20 42.11069 4.97096 36041 ft 457 kts 26°
2026-04-22 08:21 42.16522 5.01527 36032 ft 457 kts 27°
2026-04-22 08:21 42.21953 5.05961 36032 ft 457 kts 27°
2026-04-22 08:22 42.27384 5.10406 36030 ft 456 kts 27°
2026-04-22 08:22 42.32817 5.14845 36031 ft 456 kts 26°
2026-04-22 08:23 42.38247 5.19297 36039 ft 456 kts 26°
2026-04-22 08:23 42.43631 5.23717 36038 ft 456 kts 26°
2026-04-22 08:24 42.49046 5.28174 36030 ft 455 kts 27°
2026-04-22 08:24 42.54456 5.32637 36046 ft 454 kts 26°
2026-04-22 08:25 42.59846 5.37100 36046 ft 453 kts 26°
2026-04-22 08:25 42.65217 5.41551 36046 ft 452 kts 26°
2026-04-22 08:26 42.70585 5.45996 36045 ft 452 kts 26°
2026-04-22 08:26 42.75950 5.50450 36048 ft 451 kts 26°
2026-04-22 08:27 42.81307 5.54914 36042 ft 451 kts 26°
2026-04-22 08:27 42.86650 5.59381 36041 ft 451 kts 26°
2026-04-22 08:28 42.91992 5.63857 36056 ft 450 kts 26°
2026-04-22 08:28 42.97329 5.68334 36050 ft 450 kts 26°
2026-04-22 08:29 43.02651 5.72803 36058 ft 449 kts 26°
2026-04-22 08:29 43.07962 5.77273 36060 ft 448 kts 26°
2026-04-22 08:30 43.13267 5.81741 36071 ft 447 kts 26°
2026-04-22 08:30 43.18555 5.86206 36065 ft 446 kts 26°
2026-04-22 08:31 43.23838 5.90683 36062 ft 446 kts 26°
2026-04-22 08:32 43.31714 5.97375 36062 ft 445 kts 26°
2026-04-22 08:32 43.37053 6.01781 36062 ft 441 kts 20°
2026-04-22 08:33 43.42791 6.04297 36057 ft 428 kts
2026-04-22 08:33 43.48643 6.04960 36071 ft 425 kts 359°
2026-04-22 08:34 43.54540 6.05553 36062 ft 425 kts 359°
2026-04-22 08:34 43.60429 6.06156 36060 ft 425 kts 359°
2026-04-22 08:35 43.66324 6.06756 36056 ft 425 kts 359°
2026-04-22 08:35 43.72215 6.07351 36069 ft 424 kts 359°
2026-04-22 08:36 43.78068 6.08717 36066 ft 434 kts 13°
2026-04-22 08:36 43.83605 6.12221 36064 ft 439 kts 20°
2026-04-22 08:37 43.89085 6.15964 36084 ft 439 kts 20°
2026-04-22 08:37 43.93636 6.19071 36073 ft 438 kts 20°
2026-04-22 08:38 43.99103 6.22807 36066 ft 438 kts 20°
2026-04-22 08:38 44.04560 6.26550 36058 ft 437 kts 20°
2026-04-22 08:39 44.10008 6.30307 36069 ft 437 kts 20°
2026-04-22 08:39 44.15455 6.34052 36057 ft 436 kts 20°
2026-04-22 08:40 44.20888 6.37793 36044 ft 435 kts 20°
2026-04-22 08:40 44.26314 6.41535 36063 ft 435 kts 20°
2026-04-22 08:41 44.31737 6.45293 36070 ft 435 kts 20°
2026-04-22 08:41 44.37155 6.49054 36070 ft 434 kts 20°
2026-04-22 08:42 44.42562 6.52812 36064 ft 434 kts 20°
2026-04-22 08:42 44.47964 6.56575 36098 ft 432 kts 19°
2026-04-22 08:43 44.53348 6.60330 36087 ft 431 kts 19°
2026-04-22 08:43 44.58673 6.64057 36091 ft 430 kts 19°
2026-04-22 08:44 44.64034 6.67805 36090 ft 430 kts 19°
2026-04-22 08:44 44.69389 6.71560 36121 ft 430 kts 19°
2026-04-22 08:45 44.74738 6.75327 36108 ft 429 kts 19°
2026-04-22 08:45 44.80234 6.78247 36130 ft 416 kts
2026-04-22 08:46 44.85891 6.78680 36120 ft 403 kts 351°
2026-04-22 08:46 44.91496 6.78295 36121 ft 403 kts 351°
2026-04-22 08:47 44.97104 6.77912 36124 ft 403 kts 351°
2026-04-22 08:47 45.02673 6.77543 36143 ft 404 kts 351°
2026-04-22 08:48 45.08282 6.77176 36135 ft 403 kts 351°
2026-04-22 08:48 45.13899 6.76807 36110 ft 404 kts 351°
2026-04-22 08:49 45.19505 6.76439 36148 ft 403 kts 351°
2026-04-22 08:49 45.25106 6.76062 36128 ft 402 kts 351°
2026-04-22 08:50 45.30684 6.75689 36107 ft 401 kts 351°
2026-04-22 08:50 45.36269 6.75315 36103 ft 402 kts 351°
2026-04-22 08:51 45.41851 6.74956 36125 ft 403 kts 354°
2026-04-22 08:51 45.47442 6.76422 36112 ft 421 kts 14°
2026-04-22 08:52 45.52674 6.80463 36099 ft 430 kts 22°
2026-04-22 08:52 45.57843 6.84747 36118 ft 430 kts 21°
2026-04-22 08:53 45.63011 6.89023 36137 ft 429 kts 21°
2026-04-22 08:53 45.68167 6.93318 36122 ft 428 kts 21°
2026-04-22 08:54 45.73306 6.97606 36121 ft 428 kts 21°
2026-04-22 08:54 45.78417 7.01878 36144 ft 428 kts 21°
2026-04-22 08:55 45.83550 7.06187 36125 ft 427 kts 21°
2026-04-22 08:55 45.88673 7.10491 36114 ft 427 kts 21°
2026-04-22 08:56 45.93789 7.14807 36125 ft 426 kts 21°
2026-04-22 08:56 45.98903 7.19127 36121 ft 426 kts 21°
2026-04-22 08:57 46.04016 7.23453 36108 ft 426 kts 21°
2026-04-22 08:57 46.09123 7.27797 36102 ft 426 kts 21°
2026-04-22 08:58 46.14219 7.32144 36132 ft 426 kts 22°
2026-04-22 08:58 46.19295 7.36463 36113 ft 426 kts 21°
2026-04-22 08:59 46.24400 7.40820 36102 ft 426 kts 22°
2026-04-22 08:59 46.29506 7.45193 36096 ft 427 kts 22°
2026-04-22 09:00 46.34605 7.49574 36095 ft 426 kts 22°
2026-04-22 09:00 46.39708 7.53961 36074 ft 427 kts 22°
2026-04-22 09:01 46.44817 7.58355 36093 ft 427 kts 22°
2026-04-22 09:01 46.49931 7.62776 36092 ft 427 kts 22°
2026-04-22 09:02 46.55038 7.67206 36094 ft 427 kts 22°
2026-04-22 09:02 46.60137 7.71645 36101 ft 427 kts 22°
2026-04-22 09:03 46.65181 7.76163 36108 ft 429 kts 23°
2026-04-22 09:03 46.70267 7.80817 36120 ft 428 kts 23°
2026-04-22 09:04 46.75290 7.85410 36128 ft 429 kts 24°
2026-04-22 09:04 46.80360 7.90023 36129 ft 430 kts 23°
2026-04-22 09:05 46.85433 7.94658 36127 ft 430 kts 23°
2026-04-22 09:05 46.90507 7.99302 36144 ft 430 kts 24°
2026-04-22 09:06 46.95584 8.03947 36183 ft 431 kts 24°
2026-04-22 09:06 47.00665 8.08622 36184 ft 431 kts 24°
2026-04-22 09:07 47.05741 8.13309 36189 ft 431 kts 24°
2026-04-22 09:07 47.10816 8.18005 36203 ft 431 kts 25°
2026-04-22 09:08 47.15902 8.22697 36184 ft 432 kts 25°
2026-04-22 09:08 47.20981 8.27406 36208 ft 432 kts 25°
2026-04-22 09:09 47.26065 8.32137 36197 ft 432 kts 25°
2026-04-22 09:09 47.31114 8.36841 36202 ft 433 kts 26°
2026-04-22 09:10 47.36202 8.41599 36195 ft 433 kts 26°
2026-04-22 09:10 47.41287 8.46369 36220 ft 433 kts 26°
2026-04-22 09:11 47.46378 8.51149 36218 ft 434 kts 26°
2026-04-22 09:11 47.51472 8.55931 36232 ft 434 kts 27°
2026-04-22 09:12 47.56568 8.60727 36224 ft 434 kts 27°
2026-04-22 09:12 47.61661 8.65538 36216 ft 434 kts 27°
2026-04-22 09:13 47.66748 8.70367 36209 ft 434 kts 27°
2026-04-22 09:13 47.71840 8.75203 36207 ft 434 kts 27°
2026-04-22 09:14 47.76923 8.80046 36208 ft 434 kts 28°
2026-04-22 09:14 47.82009 8.84906 36206 ft 434 kts 28°
2026-04-22 09:15 47.87093 8.89768 36203 ft 434 kts 28°
2026-04-22 09:15 47.92174 8.94638 36235 ft 434 kts 28°
2026-04-22 09:16 47.97251 8.99512 36232 ft 434 kts 28°
2026-04-22 09:16 48.02327 9.04399 36229 ft 434 kts 28°
2026-04-22 09:17 48.07403 9.09300 36232 ft 435 kts 28°
2026-04-22 09:17 48.12451 9.14190 36248 ft 434 kts 28°
2026-04-22 09:18 48.17816 9.18056 36245 ft 425 kts 12°
2026-04-22 09:18 48.23602 9.19439 36246 ft 420 kts
2026-04-22 09:19 48.29410 9.20406 36257 ft 420 kts
2026-04-22 09:19 48.35227 9.21392 36239 ft 420 kts
2026-04-22 09:20 48.41045 9.22382 36236 ft 421 kts
2026-04-22 09:20 48.46861 9.23373 36234 ft 421 kts
2026-04-22 09:21 48.52680 9.24360 36260 ft 421 kts
2026-04-22 09:21 48.58510 9.25347 36265 ft 421 kts
2026-04-22 09:22 48.64336 9.26338 36271 ft 421 kts
2026-04-22 09:22 48.70172 9.27231 36271 ft 421 kts
2026-04-22 09:23 48.76013 9.28084 36271 ft 422 kts
2026-04-22 09:23 48.81849 9.28960 36266 ft 422 kts
2026-04-22 09:24 48.87651 9.29861 36262 ft 422 kts
2026-04-22 09:24 48.93489 9.30765 36266 ft 422 kts
2026-04-22 09:25 48.99331 9.31659 36264 ft 422 kts
2026-04-22 09:25 49.05177 9.32565 36258 ft 422 kts
2026-04-22 09:26 49.11023 9.33469 36262 ft 422 kts
2026-04-22 09:26 49.16868 9.34377 36271 ft 422 kts
2026-04-22 09:27 49.21732 9.35142 36262 ft 423 kts
2026-04-22 09:27 49.27595 9.36055 36263 ft 423 kts
2026-04-22 09:28 49.34408 9.37126 36262 ft 423 kts
2026-04-22 09:28 49.39321 9.37897 36264 ft 424 kts
2026-04-22 09:29 49.45189 9.38814 36271 ft 424 kts
2026-04-22 09:29 49.51069 9.39742 36280 ft 425 kts
2026-04-22 09:30 49.56921 9.40664 36279 ft 426 kts
2026-04-22 09:30 49.62820 9.41592 36296 ft 426 kts
2026-04-22 09:31 49.68719 9.42536 36298 ft 426 kts
2026-04-22 09:31 49.74624 9.43476 36299 ft 427 kts
2026-04-22 09:32 49.80536 9.44419 36302 ft 427 kts
2026-04-22 09:32 49.86448 9.45376 36315 ft 427 kts
2026-04-22 09:33 49.92364 9.46332 36312 ft 428 kts
2026-04-22 09:33 49.98285 9.47282 36316 ft 428 kts
2026-04-22 09:34 50.04207 9.48247 36324 ft 428 kts
2026-04-22 09:34 50.10127 9.49227 36321 ft 428 kts
2026-04-22 09:35 50.19002 9.50796 36323 ft 427 kts
2026-04-22 09:35 50.24910 9.51845 36326 ft 427 kts
2026-04-22 09:36 50.30822 9.52882 36332 ft 427 kts
2026-04-22 09:36 50.36733 9.53932 36330 ft 427 kts
2026-04-22 09:37 50.42610 9.54988 36330 ft 428 kts
2026-04-22 09:37 50.48518 9.56043 36336 ft 428 kts
2026-04-22 09:38 50.54437 9.57100 36337 ft 428 kts
2026-04-22 09:38 50.60348 9.58170 36348 ft 428 kts
2026-04-22 09:39 50.66264 9.59236 36349 ft 428 kts
2026-04-22 09:39 50.72175 9.60303 36349 ft 427 kts
2026-04-22 09:40 50.78084 9.61371 36355 ft 427 kts
2026-04-22 09:40 50.83993 9.62443 36354 ft 428 kts
2026-04-22 09:41 50.89902 9.63525 36353 ft 428 kts
2026-04-22 09:41 50.95817 9.64598 36353 ft 428 kts
2026-04-22 09:42 51.01697 9.65665 36355 ft 427 kts
2026-04-22 09:42 51.07605 9.66743 36359 ft 427 kts
2026-04-22 09:43 51.13519 9.67821 36363 ft 427 kts
2026-04-22 09:43 51.19430 9.68903 36360 ft 427 kts
2026-04-22 09:44 51.25344 9.69937 36364 ft 428 kts
2026-04-22 09:44 51.31272 9.70879 36372 ft 428 kts
2026-04-22 09:45 51.37194 9.71809 36384 ft 428 kts
2026-04-22 09:45 51.43113 9.72764 36383 ft 428 kts
2026-04-22 09:46 51.49028 9.73753 36384 ft 427 kts
2026-04-22 09:46 51.54935 9.74859 36390 ft 427 kts
2026-04-22 09:47 51.60843 9.76018 36392 ft 427 kts
2026-04-22 09:47 51.66741 9.77143 36387 ft 427 kts
2026-04-22 09:48 51.72640 9.78255 36387 ft 427 kts
2026-04-22 09:48 51.78540 9.79377 36392 ft 426 kts
2026-04-22 09:49 51.84394 9.80501 36389 ft 426 kts
2026-04-22 09:49 51.90287 9.81635 36339 ft 427 kts
2026-04-22 09:50 51.93229 9.82202 36083 ft 426 kts
2026-04-22 09:50 51.96172 9.82767 35836 ft 425 kts
2026-04-22 09:50 51.99111 9.83333 35395 ft 426 kts
2026-04-22 09:50 52.02065 9.83906 34556 ft 429 kts
2026-04-22 09:51 52.05042 9.84489 33617 ft 431 kts
2026-04-22 09:51 52.08013 9.85072 32972 ft 427 kts
2026-04-22 09:51 52.10937 9.85645 32428 ft 420 kts 10°
2026-04-22 09:51 52.13824 9.86214 31866 ft 415 kts 10°
2026-04-22 09:52 52.16672 9.86772 31318 ft 409 kts 10°
2026-04-22 09:52 52.19483 9.87322 30777 ft 405 kts 10°
2026-04-22 09:52 52.22261 9.87865 30203 ft 400 kts 10°
2026-04-22 09:52 52.24999 9.88456 29657 ft 393 kts 14°
2026-04-22 09:53 52.27623 9.89527 29110 ft 385 kts 18°
2026-04-22 09:53 52.30195 9.90660 28560 ft 381 kts 18°
2026-04-22 09:53 52.32712 9.91763 28050 ft 376 kts 18°
2026-04-22 09:53 52.35224 9.92864 27515 ft 372 kts 18°
2026-04-22 09:54 52.37703 9.93954 27017 ft 367 kts 18°
2026-04-22 09:54 52.40161 9.95038 26520 ft 363 kts 18°
2026-04-22 09:54 52.42595 9.96111 26033 ft 359 kts 18°
2026-04-22 09:54 52.44996 9.97171 25555 ft 356 kts 18°
2026-04-22 09:55 52.47378 9.98227 25098 ft 353 kts 18°
2026-04-22 09:55 52.49739 9.99275 24642 ft 350 kts 18°
2026-04-22 09:55 52.52076 10.00312 24192 ft 347 kts 18°
2026-04-22 09:55 52.54393 10.01341 23708 ft 344 kts 18°
2026-04-22 09:56 52.56686 10.02363 23252 ft 339 kts 18°
2026-04-22 09:56 52.58922 10.03361 22815 ft 335 kts 18°
2026-04-22 09:56 52.61157 10.04355 22382 ft 331 kts 18°
2026-04-22 09:56 52.63370 10.05342 21948 ft 327 kts 18°
2026-04-22 09:57 52.65557 10.06321 21518 ft 324 kts 18°
2026-04-22 09:57 52.67728 10.07298 21075 ft 322 kts 18°
2026-04-22 09:57 52.69880 10.08268 20632 ft 320 kts 18°
2026-04-22 09:57 52.72019 10.09233 20187 ft 318 kts 18°
2026-04-22 09:58 52.74149 10.10193 19727 ft 317 kts 18°
2026-04-22 09:58 52.76272 10.11146 19283 ft 316 kts 17°
2026-04-22 09:58 52.78442 10.11789 18836 ft 318 kts
2026-04-22 09:58 52.80662 10.11893 18348 ft 319 kts
2026-04-22 09:59 52.82880 10.11958 17879 ft 318 kts
2026-04-22 09:59 52.85085 10.12021 17433 ft 316 kts
2026-04-22 09:59 52.87274 10.12082 16996 ft 314 kts
2026-04-22 09:59 52.89461 10.12149 16554 ft 314 kts
2026-04-22 10:00 52.91640 10.12223 16127 ft 313 kts
2026-04-22 10:00 52.93815 10.12296 15697 ft 312 kts
2026-04-22 10:00 52.95986 10.12369 15264 ft 312 kts
2026-04-22 10:00 52.98154 10.12446 14832 ft 311 kts
2026-04-22 10:01 53.00320 10.12522 14402 ft 312 kts
2026-04-22 10:01 53.02490 10.12595 13935 ft 312 kts
2026-04-22 10:01 53.04657 10.12668 13481 ft 311 kts
2026-04-22 10:01 53.06815 10.12740 13035 ft 309 kts
2026-04-22 10:02 53.08963 10.12809 12590 ft 308 kts
2026-04-22 10:02 53.11106 10.12876 12143 ft 307 kts
2026-04-22 10:02 53.13238 10.12943 11698 ft 306 kts
2026-04-22 10:02 53.15366 10.13013 11243 ft 305 kts
2026-04-22 10:03 53.17485 10.13084 10800 ft 304 kts
2026-04-22 10:03 53.19549 10.13153 10620 ft 295 kts
2026-04-22 10:03 53.21557 10.13220 10445 ft 285 kts
2026-04-22 10:03 53.23553 10.13291 10086 ft 283 kts
2026-04-22 10:04 53.25496 10.13359 9949 ft 277 kts
2026-04-22 10:04 53.27417 10.13425 9816 ft 275 kts
2026-04-22 10:04 53.29330 10.13491 9680 ft 274 kts
2026-04-22 10:04 53.31237 10.13554 9529 ft 273 kts
2026-04-22 10:05 53.33128 10.13616 9137 ft 271 kts
2026-04-22 10:05 53.35009 10.13687 8737 ft 269 kts
2026-04-22 10:05 53.36815 10.14344 8348 ft 265 kts 24°
2026-04-22 10:05 53.38376 10.15923 7938 ft 262 kts 41°
2026-04-22 10:06 53.39548 10.18240 7550 ft 261 kts 59°
2026-04-22 10:06 53.40222 10.21045 7165 ft 261 kts 76°
2026-04-22 10:06 53.40473 10.24060 6765 ft 261 kts 81°
2026-04-22 10:06 53.40698 10.27077 6328 ft 260 kts 81°
2026-04-22 10:07 53.40796 10.30109 5995 ft 260 kts 95°
2026-04-22 10:07 53.40302 10.32943 5851 ft 250 kts 115°
2026-04-22 10:07 53.39291 10.35238 5718 ft 243 kts 135°
2026-04-22 10:07 53.37901 10.36797 5436 ft 242 kts 154°
2026-04-22 10:08 53.36210 10.37310 4677 ft 258 kts 187°
2026-04-22 10:08 53.34541 10.36262 4179 ft 260 kts 218°
2026-04-22 10:08 53.33394 10.34001 3665 ft 261 kts 248°
2026-04-22 10:08 53.33002 10.31064 3153 ft 262 kts 273°
2026-04-22 10:09 53.33404 10.28190 2978 ft 246 kts 298°
2026-04-22 10:09 53.34375 10.25979 2979 ft 227 kts 320°
2026-04-22 10:09 53.35528 10.24320 2990 ft 213 kts 321°
2026-04-22 10:09 53.36633 10.22742 2986 ft 208 kts 321°
2026-04-22 10:10 53.37780 10.21288 2993 ft 207 kts 331°
2026-04-22 10:10 53.39053 10.20188 2988 ft 206 kts 334°
2026-04-22 10:10 53.40335 10.19095 2989 ft 207 kts 334°
2026-04-22 10:10 53.41613 10.17997 2992 ft 206 kts 334°
2026-04-22 10:11 53.42890 10.16903 2983 ft 206 kts 334°
2026-04-22 10:11 53.44174 10.15812 3000 ft 207 kts 334°
2026-04-22 10:11 53.45459 10.14723 2999 ft 206 kts 334°
2026-04-22 10:11 53.46737 10.13632 3005 ft 203 kts 334°
2026-04-22 10:12 53.47949 10.12593 3005 ft 189 kts 334°
2026-04-22 10:12 53.49079 10.11622 3012 ft 175 kts 334°
2026-04-22 10:12 53.50161 10.10692 2889 ft 177 kts 334°
2026-04-22 10:12 53.51271 10.09739 2583 ft 181 kts 333°
2026-04-22 10:13 53.52380 10.08784 2342 ft 179 kts 333°
2026-04-22 10:13 53.53472 10.07841 2109 ft 174 kts 333°
2026-04-22 10:13 53.54534 10.06928 1865 ft 166 kts 333°
2026-04-22 10:13 53.55528 10.06075 1674 ft 156 kts 333°
2026-04-22 10:14 53.56469 10.05266 1448 ft 147 kts 332°
2026-04-22 10:14 53.57348 10.04508 1265 ft 139 kts 332°
2026-04-22 10:14 53.58209 10.03768 1088 ft 137 kts 332°
2026-04-22 10:14 53.59065 10.03031 906 ft 137 kts 331°
2026-04-22 10:15 53.59910 10.02303 734 ft 137 kts 329°
2026-04-22 10:15 53.60762 10.01573 555 ft 139 kts 332°
2026-04-22 10:15 53.61630 10.00829 369 ft 141 kts 331°
2026-04-22 10:15 53.62504 10.00062 172 ft 143 kts 330°
2026-04-22 10:16 53.63092 9.99553 72 ft 143 kts 331°
2026-04-22 10:16 53.63879 9.98869 50 ft 104 kts 333°
2026-04-22 10:16 53.64344 9.98464 54 ft 36 kts 333°
2026-04-22 10:16 53.64569 9.98366 58 ft 27 kts
2026-04-22 10:17 53.64688 9.98412 50 ft 17 kts 41°
2026-04-22 10:17 53.64640 9.98544 52 ft 14 kts 155°
2026-04-22 10:17 53.64554 9.98621 52 ft 14 kts 152°
2026-04-22 10:17 53.64472 9.98695 51 ft 13 kts 152°
2026-04-22 10:18 53.64382 9.98773 50 ft 19 kts 153°
2026-04-22 10:18 53.64265 9.98873 50 ft 18 kts 153°
2026-04-22 10:18 53.64154 9.98967 49 ft 17 kts 153°
2026-04-22 10:18 53.64050 9.99055 48 ft 16 kts 152°
2026-04-22 10:19 53.63956 9.99141 48 ft 15 kts 152°
2026-04-22 10:19 53.63871 9.99218 48 ft 13 kts 152°
2026-04-22 10:19 53.63775 9.99330 48 ft 17 kts 135°
2026-04-22 10:19 53.63702 9.99484 48 ft 16 kts 125°
2026-04-22 10:20 53.63641 9.99631 49 ft 14 kts 126°
2026-04-22 10:20 53.63573 9.99788 49 ft 20 kts 126°
2026-04-22 10:20 53.63507 9.99941 51 ft 14 kts 126°
2026-04-22 10:20 53.63443 10.00055 48 ft 11 kts 169°
2026-04-22 10:21 53.63385 9.99976 48 ft 15 kts 230°
2026-04-22 10:21 53.63302 9.99806 48 ft 18 kts 230°
2026-04-22 10:21 53.63211 9.99772 46 ft 13 kts 156°
2026-04-22 10:21 53.63131 9.99840 48 ft 13 kts 153°
2026-04-22 10:22 53.63027 9.99929 48 ft 18 kts 153°
2026-04-22 10:22 53.62923 10.00018 46 ft 13 kts 153°
2026-04-22 10:22 53.62843 10.00073 47 ft 11 kts 156°
2026-04-22 10:22 53.62818 10.00131 48 ft 5 kts 59°
2026-04-22 10:23 53.62831 10.00176 46 ft 4 kts 63°
2026-04-22 10:23 53.62841 10.00206 48 ft 1 kts 62°
2026-04-22 10:23 53.62843 10.00214 48 ft 1 kts 62°
2026-04-22 10:23 53.62844 10.00216 48 ft 0 kts 62°